Change the Weather History Date:

Saturday, March 19, 2011

  Actual Average Record
Temperature  
Mean Temperature 69 °F 71 °F  
Max Temperature 80 °F 79 °F 89 °F (1924)
Min Temperature 58 °F 63 °F 37 °F (1892)
Degree Days  
Heating Degree Days 0 1  
Month to date heating degree days 6 19  
Since 1 July heating degree days 309 224  
Cooling Degree Days 4 6  
Month to date cooling degree days 124 112  
Year to date cooling degree days 405 347  
Growing Degree Days 20 (Base 50)    
Moisture  
Dew Point 58 °F    
Average Humidity 66    
Maximum Humidity 84    
Minimum Humidity 48    
Precipitation  
Precipitation 0.00 in 0.16 in 5.05 in (2001)
Month to date precipitation 0.47 2.78  
Year to date precipitation 3.12 8.73  
Snow  
Snow 0.00 in - - ()
Month to date snowfall 0.0  
Since 1 July snowfall 0.0  
Snow Depth 0.00 in    
Sea Level Pressure  
Sea Level Pressure 30.20 in    
Wind  
Wind Speed 5 mph (NE)    
Max Wind Speed 14 mph    
Max Gust Speed 23 mph    
Visibility 10 miles    
Events      
T = Trace of Precipitation, MM = Missing Value Source: NWS Daily Summary

Daily Weather History Graph

Daily Weather History Graph

Search for Another Location

Airport or City:

Trip Planner

Search our weather history database for the weather conditions in past years. The results will help you decide how hot, cold, wet, or windy it might be!

Date:

Astronomy

Mar. 19, 2011 Rise Set
Actual Time 7:25 AM EDT 7:31 PM EDT
Civil Twilight 7:02 AM EDT 7:54 PM EDT
Nautical Twilight 6:35 AM EDT 8:21 PM EDT
Astronomical Twilight 6:08 AM EDT 8:48 PM EDT
Moon 7:44 PM EDT 6:59 AM EDT
Length of Visible Light 12h 51m
Length of Day
12h 05m
Full, 100% of the Moon is Illuminated
Mar 19
Full
Mar 19
Full
Mar 26
Last Quarter
Apr 3
New
Apr 11
First Quarter

Hourly Weather History & Observations

Time (EDT) Temp. Heat Index Dew Point Humidity Pressure Visibility Wind Dir Wind Speed Gust Speed Precip Events Conditions
12:53 AM 71.1 °F - 54.0 °F 55% 30.23 in 10.0 mi East 6.9 mph - N/A   Partly Cloudy
1:53 AM 70.0 °F - 55.0 °F 59% 30.21 in 10.0 mi East 4.6 mph - N/A   Partly Cloudy
2:53 AM 66.9 °F - 55.0 °F 66% 30.19 in 10.0 mi East 5.8 mph - N/A   Clear
3:53 AM 66.9 °F - 55.9 °F 68% 30.16 in 10.0 mi SE 3.5 mph - N/A   Clear
4:53 AM 64.0 °F - 54.0 °F 70% 30.15 in 10.0 mi Calm Calm - N/A   Clear
5:53 AM 60.1 °F - 54.0 °F 80% 30.15 in 10.0 mi Calm Calm - N/A   Clear
6:53 AM 59.0 °F - 53.1 °F 81% 30.18 in 10.0 mi NW 9.2 mph - N/A   Clear
7:53 AM 61.0 °F - 55.9 °F 83% 30.20 in 10.0 mi NW 5.8 mph - N/A   Partly Cloudy
8:53 AM 68.0 °F - 57.0 °F 68% 30.22 in 10.0 mi NW 4.6 mph - N/A   Partly Cloudy
9:53 AM 73.9 °F - 57.9 °F 57% 30.24 in 10.0 mi NNW 3.5 mph - N/A   Partly Cloudy
10:53 AM 75.9 °F - 57.9 °F 54% 30.24 in 10.0 mi North 5.8 mph - N/A   Partly Cloudy
11:53 AM 79.0 °F - 57.0 °F 47% 30.25 in 10.0 mi NE 8.1 mph - N/A   Partly Cloudy
12:53 PM 79.0 °F - 57.9 °F 48% 30.23 in 10.0 mi ENE 10.4 mph - N/A   Scattered Clouds
1:53 PM 80.1 °F 80.9 °F 60.1 °F 50% 30.22 in 10.0 mi NE 8.1 mph - N/A   Scattered Clouds
2:53 PM 80.1 °F 80.9 °F 60.1 °F 50% 30.19 in 10.0 mi NE 9.2 mph - N/A   Scattered Clouds
3:53 PM 80.1 °F 80.9 °F 60.1 °F 50% 30.17 in 10.0 mi East 8.1 mph - N/A   Partly Cloudy
4:53 PM 79.0 °F - 61.0 °F 54% 30.17 in 10.0 mi NE 8.1 mph - N/A   Partly Cloudy
5:53 PM 79.0 °F - 62.1 °F 56% 30.17 in 10.0 mi NNE 5.8 mph - N/A   Partly Cloudy
6:53 PM 75.9 °F - 61.0 °F 60% 30.17 in 10.0 mi ESE 4.6 mph - N/A   Partly Cloudy
7:53 PM 73.0 °F - 62.1 °F 68% 30.17 in 10.0 mi East 4.6 mph - N/A   Clear
8:53 PM 72.0 °F - 62.1 °F 71% 30.18 in 10.0 mi East 3.5 mph - N/A   Clear
9:53 PM 72.0 °F - 62.1 °F 71% 30.19 in 10.0 mi ESE 3.5 mph - N/A   Clear
10:53 PM 69.1 °F - 61.0 °F 75% 30.21 in 10.0 mi Calm Calm - N/A   Partly Cloudy
11:53 PM 68.0 °F - 62.1 °F 81% 30.22 in 10.0 mi Calm Calm - N/A   Partly Cloudy